Regional Weather Roundup
Issued by NWS Wakefield, VA

Home | Current Version | Previous Version | Graphics & Text | Print | Product List | Glossary On
Versions: 1 2 3 4 5 6 7 8 9 10 11 12 13 14 15 16 17 18 19 20 21 22 23 24 25 26 27 28 29 30 31 32 33 34 35 36 37 38 39 40 41 42 43 44 45 46 47 48 49 50
000
ASUS41 KAKQ 272210
RWRAKQ

REGIONAL WEATHER ROUNDUP
NATIONAL WEATHER SERVICE WAKEFIELD VA
600 PM EDT SUN JUL 27 2014

Note: "fair" indicates few or no clouds below 12,000 feet with no
significant weather and/or obstructions to visibility. * = Denotes
station may not report precipitation (e.g., rain,snow,etc.),
thunder or fog.

VAZ042-051-052>054-056-272300-
NORTHERN VIRGINIA

CITY           SKY/WX    TMP DP  RH WIND       PRES   REMARKS
WASH NATIONAL  CLOUDY    83  69  62 S16G23    29.72F
DULLES         CLOUDY    81  71  71 S13       29.71F
FORT BELVOIR   DRIZZLE   81  71  72 S5        29.72F
QUANTICO       CLOUDY    82  71  69 SW9       29.73F
FREDERICKSBRG* CLOUDY    83  73  71 SW13      29.73F
STAFFORD*      CLOUDY    82  76  83 SW6       29.77F
WARRENTON      CLOUDY    84  78  81 SW9       29.72F HX  95
CULPEPER*      CLOUDY   N/A N/A N/A S9G16     29.72F
MANASSAS*      MOSUNNY   82  73  74 SW7       29.72F
LEESBURG*      CLOUDY    84  73  70 S15       29.72F
WINCHESTER     PTSUNNY   81  70  69 SW10      29.72F
$$

VAZ048-049-060>072-079>083-272300-
CENTRAL AND SOUTH CENTRAL VIRGINIA...AND NORTH CENTRAL NORTH CAROLINA

CITY           SKY/WX    TMP DP  RH WIND       PRES   REMARKS
RICHMOND       PTSUNNY   86  69  56 SW12      29.76F
CHESTERFIELD*  CLOUDY   N/A N/A N/A SW5       29.78F
HANOVER        CLOUDY    84  70  62 SW12G18   29.77F
TAPPAHANNOCK*  CLOUDY    82  68  62 S3        29.75F
CHARLOTTSVILLE PTSUNNY   82  70  66 SW8       29.75F
ORANGE*        CLOUDY    82  70  65 S10G24    29.76S
LOUISA*        CLOUDY    82  73  74 SW6       29.75F
FARMVILLE*     CLOUDY    84  70  61 SW8       29.76F
SOUTH HILL*    PTSUNNY   82  73  74 S9        29.86F
ROANOKE RAPIDS NOT AVBL
RALEIGH        PTSUNNY   85  70  60 SW16      29.83F
$$

VAZ088>098-272300-
SOUTHEAST VIRGINIA

CITY           SKY/WX    TMP DP  RH WIND       PRES   REMARKS
NORFOLK        MOSUNNY   85  69  58 SW14      29.77F
VIRGINIA BEACH PTSUNNY   83  71  67 SW9       29.77F
NORFOLK NAVAL  PTSUNNY   84  71  65 SW7       29.79F
WEST POINT*    MOSUNNY   85  69  58 SW3       29.78F
NEWPORT NEWS   MOSUNNY   86  70  58 SW12      29.77F
LANGLEY AFB    MOSUNNY   83  71  67 W10       29.77F
FORT EUSTIS    MOSUNNY   82  72  70 SW5       29.76F
WILLIAMSBURG*  MOSUNNY   84  73  70 W6        29.78F
FRANKLIN*      MOSUNNY   82  72  69 SW8       29.79F
WAKEFIELD      MOSUNNY   82  70  66 SW6       29.78F
$$

VAZ020-022-025-037-045-272300-
WESTERN AND SOUTHWEST VIRGINIA

CITY           SKY/WX    TMP DP  RH WIND       PRES   REMARKS
STAUNTON*      PTSUNNY   81  67  61 SW17G23   29.81S
HOT SPRINGS VA PTSUNNY   71  61  72 W14       29.94F
LYNCHBURG      PTSUNNY   82  73  74 S9        29.81F
DANVILLE       CLOUDY    84  75  74 S5        29.80F
MARTINSVILLE   CLOUDY    85  69  60 SW5       29.83F
ROANOKE        PTSUNNY   82  66  58 SW8       29.82F
BLACKSBURG     PTSUNNY   77  72  83 SW6         N/A
DUBLIN*        CLOUDY    77  69  75 W12       29.91R
MARION*        LGT RAIN N/A N/A N/A W9        29.98R
HILLSVILLE*    CLOUDY    75  67  76 SW12G18   29.94R
RICHLANDS*     RAIN      73  70  92 S6        29.92F
WISE*          TSTM      72  64  78 SW7       29.96R
ABINGDON*      CLOUDY    75  73  95 SW6       29.92F
$$

MDZ021>025-VAZ099-100-272300-
SOUTHERN MARYLAND AND THE DELMARVA PENINSULA

CITY           SKY/WX    TMP DP  RH WIND       PRES   REMARKS
PATUXENT RIVER CLOUDY    80  71  74 SW5       29.74F
BAY BRIDGE APT NOT AVBL
LEONARDTOWN    CLOUDY    81  70  69 S5        29.76F
DOVER          MOSUNNY   82  73  72 S14       29.71F
GEORGETOWN     PTSUNNY   81  69  67 VRB7      29.75F
EASTON         PTSUNNY   82  73  74 SW10G20   29.77F
CAMBRIDGE      CLOUDY    81  70  69 S3        29.74S
SALISBURY      SUNNY     84  70  62 SW9       29.75F
OCEAN CITY     MOSUNNY   83  71  67 SW7       29.74F
WALLOPS ISLAND MOSUNNY   84  72  67 W7        29.76F
ACCOMACK*        N/A     81  70  69 SW8       29.77F
$$

NCZ012>017-030>032-272300-
EASTERN NORTH CAROLINA

CITY           SKY/WX    TMP DP  RH WIND       PRES   REMARKS
ELIZABETH CITY PTSUNNY   83  72  69 SW12      29.80F
AHOSKIE*       MOSUNNY   81  73  75 CALM      29.81F
EDENTON*       PTSUNNY   83  69  62 W9        29.81F
CURRITUCK*     PTSUNNY   85  69  58 SW8G16    29.81F
KILL DEVIL HLS PTSUNNY   81  67  62 SW10G17   29.81S
MANTEO         NOT AVBL
CAPE HATTERAS  CLOUDY    83  75  77 SW9       29.85F
GOLDSBORO      MOSUNNY   86  76  71 SW7       29.82F HX  95
WASHINGTON     SUNNY     82  71  68 W12       29.83F
GREENVILLE     MOSUNNY   82  73  74 W5        29.86F
NEW BERN       SUNNY     89  74  60 SW8       29.85F HX  98
WILMINGTON     SUNNY     94  68  42 W9        29.86F HX  98
$$

VAZ048-272300-
ELSEWHERE

CITY           SKY/WX    TMP DP  RH WIND       PRES   REMARKS
HARRISBURG PA  CLOUDY    87  69  54 S8        29.64F THUNDER
BALTIMORE      PTSUNNY   83  70  64 S9        29.69F
ANNAPOLIS      MOSUNNY   83  70  64 SW8       29.71F
ANDREWS AFB    CLOUDY    81  71  72 SW15      29.72F
WILMINGTON DE  MOSUNNY   85  73  67 S15       29.70F
PHILADELPHIA   PTSUNNY   87  70  56 S10       29.69F
WILDWOOD NJ*   MOSUNNY   81  70  69 SW8       29.74F
ATLANTIC CITY  MOSUNNY   82  71  69 SW13      29.72F
HENDERSON NC   PTSUNNY   81  70  69 S6        29.81F
GREENSBORO     CLOUDY    85  70  60 SW14G24   29.83F
ROCKY MOUNT    MOSUNNY   84  75  74 S6        29.82F
FAYETTEVILLE   SUNNY     92  69  47 SW15      29.85F HX  97
CHARLOTTE      CLOUDY    88  71  57 VRB5      29.87F
$$

VAZ100-272300-
MARINE

STATION/POSITION TIME  TEMP    WIND        PRES    WAVE   SWELL
                       AIR SEA DIR/SP/G            HT/PER HT/PER
                 (UTC) (F)     (DEG/KT/KT) (MB)    (FT/S) (FT/S)
44066 TX TWR #4  2200   76 74  230/ 16/ 19 1006.8F   4/ 6   2/ 8
CAPE MAY NJ      2200   78 78  230/  6/  7 1006.4F
LEWES DE         2200   82 72  250/  9/ 12 1006.5F
15NM E FENWICK I 2200   76 74              1007.4F   3/ 5
OCEAN-CITY-INLET 2200   82 76  260/  7/  9 1006.8F
WACHAPREAGUE VA  2200   83 80  220/  5/  7 1007.9F
THOMAS POINT MD  2200   81 80  200/ 12/ 13 1006.6F
GOOSES REEF MD   2200   80     220/  8/ 10 1007.4F
COVE POINT MD    2200   81     230/  8/  9 1006.9F
SOLOMONS ISLAND  2200      81                N/A
BISHOPS HEAD MD  2200   80 79  210/  9/ 12 1006.9F
PINEY POINT MD   2200          240/  8/ 10   N/A
POTOMAC MD       2200   81     240/ 10/ 12 1006.7F
CAMBRIDGE MD     2200   81 80  190/  5/  8 1006.7F
LEWISETTA VA     2200   82 81  220/ 10/ 13 1006.8F
RAPPAHANNOCK LGT 2200          210/  8/  9 1008.6F
STINGRAY PT      2200   83     270/ 10/ 14 1008.8F
YORK RVR RNG VA  2200   82     250/ 11/ 13 1007.5F
YORKTOWN VA      2200   81 80  240/  5/  6 1007.8F
JAMESTOWN VA     2200   81     250/  8/ 10   N/A
DOMINION TERM VA 2200   82     240/  7/  9 1008.6F
KIPTOPEKE VA     2200      82  240/  5/  8   N/A
CHES BAY BRIDGE  2200   80 80  250/  7/  9 1007.7F
CAPE HENRY VA    2200   85     190/  3/  4 1007.3F
WILLOUBY STN VA  2200          250/ 10/ 12 1007.6F
S CRANEY ISL VA  2200          210/  5/  9 1008.5F
CAPE HENRY BUOY  2200      78                N/A     2/ 7
1ST LANDING BUOY 2200   81     290/  6/ 10 1008.2F
CAPE CHARLES BUO 2200      77                N/A     2/ 7
OFFSHORE WE BUOY 2200      78                N/A     2/11
64NM E OF VA BCH 2200   80 79  220/  6/  8 1008.9F   3/ 5   2/ 5
DUCK PIER NC     2200   81 72  230/ 18/ 23 1008.8F
44056 DUCK FRF   2200                        N/A     1/11
OREGON INLET NC  2200   82 82  230/ 14/ 19 1009.9S
HATTERAS NC      2200   83 83  250/  6/  9 1011.1F
DIAMOND SHLS NC  2200          VRB 14/ 17  1010.6F   3/11   2/11
CAPE LOOKOUT NC  2100   84     230/ 11/ 14 1011.5F
$$


USA.gov is the U.S. government's official web portal to all federal, state and local government web resources and services.